• în Republica Moldova
  • Lista ţărilor
  • Pe 7 zile
  • Temperatura apei
  • Hartă satelitară
  • Meteo pe hartă
  • Widget-uri
  • user-avatar
    Intrare

    Meteo pe oră la Lilyugino

    Astăzi, 23 Iulie, Luni

    Timp Temperatura Precipitaţii Vânt Presiune Umiditate
    00:00 +18°C° 0 mm 2 m/s 738 mmHg 98%
    01:00 +17°C° 0 mm 2 m/s 738 mmHg 98%
    02:00 +18°C° 0 mm 1 m/s 739 mmHg 99%
    03:00 +17°C° 0,1 mm 2 m/s 739 mmHg 98%
    04:00 +17°C° 0,1 mm 2 m/s 739 mmHg 98%
    05:00 +17°C° 0,1 mm 2 m/s 739 mmHg 98%
    06:00 +18°C° 0 mm 2 m/s 739 mmHg 94%
    07:00 +19°C° 0 mm 3 m/s 739 mmHg 90%
    08:00 +21°C° 0 mm 3 m/s 739 mmHg 85%
    09:00 +21°C° 0,4 mm 3 m/s 739 mmHg 84%
    10:00 +22°C° 0,4 mm 3 m/s 739 mmHg 83%
    11:00 +22°C° 0,4 mm 3 m/s 739 mmHg 82%
    12:00 +22°C° 0,7 mm 3 m/s 739 mmHg 82%
    13:00 +23°C° 0,7 mm 4 m/s 739 mmHg 82%
    14:00 +23°C° 0,7 mm 4 m/s 739 mmHg 82%
    15:00 +24°C° 0,6 mm 3 m/s 739 mmHg 83%
    16:00 +24°C° 0,6 mm 3 m/s 739 mmHg 83%
    17:00 +24°C° 0,6 mm 3 m/s 739 mmHg 83%
    18:00 +21°C° 0,3 mm 2 m/s 739 mmHg 87%
    19:00 +20°C° 0,3 mm 2 m/s 739 mmHg 91%
    20:00 +19°C° 0,3 mm 2 m/s 739 mmHg 95%
    21:00 +18°C° 0 mm 2 m/s 739 mmHg 96%
    22:00 +18°C° 0 mm 2 m/s 740 mmHg 96%
    23:00 +17°C° 0 mm 2 m/s 740 mmHg 97%

    Mâine, 24 Iulie, Marţi

    Timp Temperatura Precipitaţii Vânt Presiune Umiditate
    00:00 +17°C° 0 mm 2 m/s 740 mmHg 97%
    01:00 +16°C° 0 mm 2 m/s 740 mmHg 98%
    02:00 +16°C° 0 mm 2 m/s 740 mmHg 98%
    03:00 +16°C° 0 mm 2 m/s 740 mmHg 98%
    04:00 +16°C° 0 mm 2 m/s 740 mmHg 98%
    05:00 +16°C° 0 mm 2 m/s 740 mmHg 98%
    06:00 +16°C° 0 mm 2 m/s 740 mmHg 96%
    07:00 +17°C° 0 mm 3 m/s 740 mmHg 95%
    08:00 +17°C° 0 mm 3 m/s 741 mmHg 93%
    09:00 +18°C° 0 mm 3 m/s 741 mmHg 90%
    10:00 +18°C° 0 mm 3 m/s 741 mmHg 88%
    11:00 +19°C° 0 mm 3 m/s 741 mmHg 85%
    12:00 +19°C° 0 mm 3 m/s 741 mmHg 84%
    13:00 +20°C° 0 mm 3 m/s 741 mmHg 83%
    14:00 +20°C° 0 mm 3 m/s 741 mmHg 83%
    15:00 +20°C° 0 mm 3 m/s 741 mmHg 84%
    16:00 +20°C° 0 mm 3 m/s 741 mmHg 85%
    17:00 +20°C° 0 mm 3 m/s 741 mmHg 86%
    18:00 +20°C° 0 mm 3 m/s 741 mmHg 88%
    19:00 +19°C° 0 mm 2 m/s 741 mmHg 91%
    20:00 +19°C° 0 mm 2 m/s 741 mmHg 93%
    21:00 +18°C° 0 mm 2 m/s 741 mmHg 94%
    22:00 +18°C° 0 mm 2 m/s 741 mmHg 96%
    23:00 +18°C° 0 mm 2 m/s 741 mmHg 97%

    Poimâine, 25 Iulie, Miercuri

    Timp Temperatura Precipitaţii Vânt Presiune Umiditate
    00:00 +18°C° 0,1 mm 2 m/s 741 mmHg 97%
    01:00 +18°C° 0,1 mm 2 m/s 741 mmHg 98%
    02:00 +18°C° 0,1 mm 2 m/s 741 mmHg 98%
    03:00 +18°C° 0,1 mm 2 m/s 741 mmHg 98%
    04:00 +18°C° 0,1 mm 2 m/s 741 mmHg 98%
    05:00 +18°C° 0,1 mm 2 m/s 741 mmHg 98%
    06:00 +19°C° 0,1 mm 2 m/s 742 mmHg 97%
    07:00 +19°C° 0,1 mm 2 m/s 742 mmHg 96%
    08:00 +20°C° 0,1 mm 3 m/s 742 mmHg 95%
    09:00 +20°C° 0,1 mm 3 m/s 742 mmHg 94%
    10:00 +21°C° 0,1 mm 3 m/s 742 mmHg 93%
    11:00 +21°C° 0,1 mm 3 m/s 742 mmHg 92%
    12:00 +21°C° 0,1 mm 3 m/s 742 mmHg 91%
    13:00 +22°C° 0,1 mm 3 m/s 742 mmHg 89%
    14:00 +22°C° 0,1 mm 3 m/s 742 mmHg 88%
    15:00 +24°C° 0,1 mm 2 m/s 742 mmHg 85%
    16:00 +24°C° 0,1 mm 2 m/s 742 mmHg 82%
    17:00 +25°C° 0,1 mm 2 m/s 742 mmHg 79%
    18:00 +24°C° 0,1 mm 2 m/s 742 mmHg 83%
    19:00 +21°C° 0,1 mm 2 m/s 742 mmHg 87%
    20:00 +20°C° 0,1 mm 2 m/s 743 mmHg 91%
    21:00 +19°C° 0 mm 2 m/s 743 mmHg 92%
    22:00 +18°C° 0 mm 2 m/s 743 mmHg 93%
    23:00 +17°C° 0 mm 2 m/s 743 mmHg 94%

    26 Iulie, Joi

    Timp Temperatura Precipitaţii Vânt Presiune Umiditate
    00:00 +17°C° 0 mm 2 m/s 743 mmHg 94%
    01:00 +16°C° 0 mm 1 m/s 743 mmHg 95%
    02:00 +15°C° 0 mm 1 m/s 743 mmHg 96%
    03:00 +15°C° 0 mm 1 m/s 743 mmHg 96%
    04:00 +15°C° 0 mm 1 m/s 744 mmHg 95%
    05:00 +15°C° 0 mm 1 m/s 744 mmHg 95%
    06:00 +18°C° 0 mm 1 m/s 744 mmHg 88%
    07:00 +20°C° 0 mm 1 m/s 744 mmHg 81%
    08:00 +22°C° 0 mm 1 m/s 744 mmHg 75%
    09:00 +23°C° 0 mm 1 m/s 744 mmHg 71%
    10:00 +24°C° 0 mm 2 m/s 744 mmHg 67%
    11:00 +25°C° 0 mm 2 m/s 744 mmHg 63%
    12:00 +25°C° 0 mm 2 m/s 744 mmHg 63%
    13:00 +26°C° 0 mm 2 m/s 744 mmHg 64%
    14:00 +26°C° 0 mm 2 m/s 744 mmHg 65%
    15:00 +26°C° 0 mm 2 m/s 744 mmHg 66%
    16:00 +26°C° 0 mm 2 m/s 744 mmHg 68%
    17:00 +25°C° 0 mm 2 m/s 744 mmHg 70%
    18:00 +24°C° 0 mm 2 m/s 744 mmHg 78%
    19:00 +22°C° 0 mm 1 m/s 744 mmHg 85%
    20:00 +20°C° 0 mm 1 m/s 744 mmHg 93%
    21:00 +20°C° 0 mm 1 m/s 744 mmHg 94%
    22:00 +19°C° 0 mm 1 m/s 744 mmHg 95%
    23:00 +19°C° 0 mm 1 m/s 744 mmHg 96%

    27 Iulie, Vineri

    Timp Temperatura Precipitaţii Vânt Presiune Umiditate
    00:00 +19°C° 0 mm 1 m/s 744 mmHg 96%
    01:00 +18°C° 0 mm 1 m/s 744 mmHg 97%
    02:00 +18°C° 0 mm 1 m/s 744 mmHg 97%
    03:00 +18°C° 0 mm 1 m/s 744 mmHg 97%
    04:00 +19°C° 0 mm 1 m/s 744 mmHg 97%
    05:00 +19°C° 0 mm 1 m/s 744 mmHg 97%
    06:00 +21°C° 0 mm 1 m/s 744 mmHg 91%
    07:00 +21°C° 0 mm 2 m/s 745 mmHg 85%
    08:00 +24°C° 0 mm 2 m/s 745 mmHg 79%
    09:00 +26°C° 0 mm 2 m/s 745 mmHg 74%
    10:00 +27°C° 0 mm 2 m/s 744 mmHg 68%
    11:00 +29°C° 0 mm 2 m/s 744 mmHg 63%
    12:00 +29°C° 0,6 mm 2 m/s 744 mmHg 63%
    13:00 +29°C° 0,6 mm 2 m/s 744 mmHg 64%
    14:00 +30°C° 0,6 mm 2 m/s 744 mmHg 65%
    15:00 +29°C° 1,2 mm 2 m/s 744 mmHg 72%
    16:00 +27°C° 1,2 mm 2 m/s 744 mmHg 79%
    17:00 +26°C° 1,2 mm 1 m/s 744 mmHg 86%
    18:00 +25°C° 0,2 mm 1 m/s 744 mmHg 88%
    19:00 +24°C° 0,2 mm 1 m/s 744 mmHg 91%
    20:00 +22°C° 0,2 mm 1 m/s 744 mmHg 93%
    21:00 +22°C° 0,4 mm 1 m/s 744 mmHg 94%
    22:00 +22°C° 0,4 mm 1 m/s 744 mmHg 94%
    23:00 +21°C° 0,4 mm 1 m/s 744 mmHg 95%

    28 Iulie, Sâmbătă

    Timp Temperatura Precipitaţii Vânt Presiune Umiditate
    00:00 +21°C° 0,1 mm 1 m/s 744 mmHg 95%
    01:00 +21°C° 0,1 mm 1 m/s 743 mmHg 95%
    02:00 +21°C° 0,1 mm 1 m/s 743 mmHg 95%
    03:00 +21°C° 0,5 mm 1 m/s 743 mmHg 96%
    04:00 +21°C° 0,5 mm 1 m/s 744 mmHg 96%
    05:00 +20°C° 0,5 mm 2 m/s 744 mmHg 97%
    06:00 +20°C° 0,5 mm 2 m/s 744 mmHg 96%
    07:00 +21°C° 0,5 mm 2 m/s 744 mmHg 95%
    08:00 +21°C° 0,5 mm 2 m/s 744 mmHg 94%
    09:00 +23°C° 0,9 mm 2 m/s 744 mmHg 91%
    10:00 +24°C° 0,9 mm 2 m/s 744 mmHg 89%
    11:00 +25°C° 0,9 mm 2 m/s 744 mmHg 87%
    12:00 +25°C° 0,6 mm 2 m/s 744 mmHg 87%
    13:00 +25°C° 0,6 mm 2 m/s 744 mmHg 88%
    14:00 +25°C° 0,6 mm 2 m/s 744 mmHg 88%
    15:00 +25°C° 0,4 mm 3 m/s 744 mmHg 88%
    16:00 +24°C° 0,4 mm 3 m/s 744 mmHg 88%
    17:00 +24°C° 0,4 mm 3 m/s 744 mmHg 88%
    18:00 +22°C° 0,1 mm 3 m/s 744 mmHg 90%
    19:00 +22°C° 0,1 mm 3 m/s 744 mmHg 92%
    20:00 +21°C° 0,1 mm 3 m/s 745 mmHg 94%
    21:00 +20°C° 0 mm 3 m/s 745 mmHg 94%
    22:00 +20°C° 0 mm 4 m/s 745 mmHg 95%
    23:00 +20°C° 0 mm 4 m/s 745 mmHg 95%
    Arată mai mult